Location: Arcueil
(48.7999°N, 2.3326°E)
Time: 19:20:23
(UTC+00:00)

IRIDIUM 104 - Pass Details

Date: 03 February 2023
Orbit: 776 x 779 km, 86.4° (Epoch: 26 March)

Event Time Altitude Azimuth Distance (km) Brightness Sun altitude
Rises 18:25:16 0° 358° (N) 3,277 7.5 -15.7°
Reaches altitude 10° 18:27:39 10° 1° (N) 2,345 6.7 -16.1°
Maximum altitude 18:32:53 68° 84° (E) 840 4.2 -16.9°
Drops below altitude 10° 18:38:05 10° 168° (SSE) 2,325 6.7 -17.8°
Sets 18:40:26 0° 171° (S) 3,248 7.5 -18.1°
